McAllen, TX

2:53 AM CST on November 18, 2017 (GMT -0600)
McAllen Miller International

Weather History for KMFE - January, 2013

Change the Weather History Date:

Wednesday, January 30, 2013

  Actual Average Record
Temperature  
Mean Temperature 61 °F 62 °F  
Max Temperature 74 °F 73 °F 93 °F (1971)
Min Temperature 48 °F 52 °F 29 °F (1966)
Degree Days  
Heating Degree Days 4 5  
Month to date heating degree days 161 186  
Since 1 July heating degree days 264 423  
Cooling Degree Days 0 2  
Month to date cooling degree days 88 60  
Year to date cooling degree days 88 60  
Growing Degree Days 14 (Base 50)    
Moisture  
Dew Point 27 °F    
Average Humidity 50    
Maximum Humidity 90    
Minimum Humidity 10    
Precipitation  
Precipitation 0.00 in 0.04 in 0.16 in (1976)
Month to date precipitation 0.98 1.02  
Year to date precipitation 0.98 1.02  
Sea Level Pressure  
Sea Level Pressure 30.01 in    
Wind  
Wind Speed 16 mph (NNW)    
Max Wind Speed 32 mph    
Max Gust Speed 43 mph    
Visibility 10 miles    
Events      
T = Trace of Precipitation, MM = Missing Value Source: NWS Daily Summary

Daily Weather History Graph

Daily Weather History Graph

Search for Another Location

Airport or City:

Trip Planner

Search our weather history database for the weather conditions in past years. The results will help you decide how hot, cold, wet, or windy it might be!

Date:

Astronomy

Jan. 30, 2013 Rise Set
Actual Time 7:18 AM CST 6:14 PM CST
Civil Twilight 6:53 AM CST 6:39 PM CST
Nautical Twilight 6:26 AM CST 7:06 PM CST
Astronomical Twilight 5:58 AM CST 7:34 PM CST
Moon 9:45 PM CST (1/30) 9:12 AM CST (1/30)
Length of Visible Light 11h 45m
Length of Day
10h 56m
Waning Gibbous, 87% of the Moon is Illuminated
Jan 30
Waning Gibbous
Feb 3
Last Quarter
Feb 10
New
Feb 17
First Quarter
Feb 25
Full

Hourly Weather History & Observations

Time (CST) Temp. Dew Point Humidity Pressure Visibility Wind Dir Wind Speed Gust Speed Precip Events Conditions
12:15 AM 73.4 °F 68.0 °F 83% 29.72 in 9.0 mi NNW 10.4 mph - N/A   Mostly Cloudy
12:22 AM 73.4 °F 68.0 °F 83% 29.72 in 9.0 mi NNW 9.2 mph - N/A   Mostly Cloudy
12:44 AM 73.4 °F 64.4 °F 73% 29.73 in 9.0 mi NNW 16.1 mph 20.7 mph N/A   Mostly Cloudy
12:53 AM 73.0 °F 57.9 °F 59% 29.72 in 10.0 mi NNE 16.1 mph 23.0 mph N/A   Partly Cloudy
1:37 AM 71.6 °F 39.2 °F 31% 29.77 in 10.0 mi North 20.7 mph 28.8 mph N/A   Mostly Cloudy
1:53 AM 71.1 °F 37.0 °F 29% 29.77 in 10.0 mi North 18.4 mph 27.6 mph N/A   Overcast
2:00 AM 71.6 °F 37.4 °F 29% 29.78 in 10.0 mi North 19.6 mph - N/A   Overcast
2:53 AM 70.0 °F 34.0 °F 27% 29.82 in 10.0 mi North 21.9 mph 31.1 mph N/A   Partly Cloudy
3:53 AM 68.0 °F 30.9 °F 25% 29.86 in 10.0 mi North 17.3 mph - N/A   Partly Cloudy
4:53 AM 64.0 °F 30.9 °F 29% 29.91 in 10.0 mi North 18.4 mph 26.5 mph N/A   Clear
5:53 AM 60.8 °F 24.8 °F 25% 29.97 in 10.0 mi NNW 17.3 mph 24.2 mph N/A   Clear
6:53 AM 60.1 °F 19.0 °F 20% 30.02 in 10.0 mi North 24.2 mph 32.2 mph N/A   Clear
7:53 AM 60.1 °F 18.0 °F 20% 30.07 in 10.0 mi NNW 15.0 mph 23.0 mph N/A   Clear
8:53 AM 60.1 °F 17.1 °F 19% 30.11 in 10.0 mi NNW 19.6 mph 27.6 mph N/A   Clear
9:53 AM 62.1 °F 15.1 °F 16% 30.14 in 10.0 mi NNW 23.0 mph 32.2 mph N/A   Clear
10:53 AM 66.9 °F 14.0 °F 13% 30.15 in 10.0 mi NNW 21.9 mph 36.8 mph N/A   Clear
11:53 AM 69.1 °F 12.9 °F 11% 30.13 in 10.0 mi NNW 23.0 mph 35.7 mph N/A   Clear
12:53 PM 71.1 °F 12.9 °F 11% 30.12 in 10.0 mi NNW 23.0 mph 33.4 mph N/A   Clear
1:53 PM 70.0 °F 12.0 °F 11% 30.09 in 10.0 mi NNW 19.6 mph 29.9 mph N/A   Clear
2:53 PM 72.0 °F 14.0 °F 11% 30.09 in 10.0 mi North 18.4 mph 32.2 mph N/A   Clear
3:53 PM 69.1 °F 14.0 °F 12% 30.09 in 10.0 mi North 24.2 mph 33.4 mph N/A   Clear
4:53 PM 69.1 °F 15.1 °F 13% 30.10 in 10.0 mi North 19.6 mph - N/A   Clear
5:53 PM 66.0 °F 16.0 °F 15% 30.12 in 10.0 mi North 15.0 mph - N/A   Clear
6:53 PM 64.0 °F 17.1 °F 16% 30.13 in 10.0 mi North 11.5 mph - N/A   Clear
7:53 PM 62.1 °F 17.1 °F 18% 30.17 in 10.0 mi North 9.2 mph - N/A   Clear
8:53 PM 59.0 °F 17.1 °F 20% 30.21 in 10.0 mi North 4.6 mph - N/A   Clear
9:53 PM 57.9 °F 17.1 °F 20% 30.25 in 10.0 mi Calm Calm - N/A   Clear
10:53 PM 54.0 °F 19.9 °F 26% 30.26 in 10.0 mi Calm Calm - N/A   Clear
11:53 PM 48.0 °F 28.0 °F 46% 30.27 in 10.0 mi Calm Calm - N/A   Clear